• In Germany
  • List of Countries
  • For 7 days
  • Water Temperature
  • Satellite Maps
  • Weather Map
  • Weather Widgets
  • user-avatar
    Login

    Hourly Weather Graz

    Today, 20 October, Friday

    Time Temperature Precipitation Wind Pressure Humidity
    00:00 +11°C° 0 mm 1 mps 724 mmHg 77%
    01:00 +11°C° 0 mm 1 mps 724 mmHg 73%
    02:00 +11°C° 0 mm 1 mps 724 mmHg 73%
    03:00 +10°C° 0 mm 1 mps 724 mmHg 74%
    04:00 +10°C° 0 mm 1 mps 724 mmHg 75%
    05:00 +10°C° 0 mm 1 mps 724 mmHg 75%
    06:00 +10°C° 0 mm 1 mps 724 mmHg 75%
    07:00 +10°C° 0 mm 1 mps 724 mmHg 75%
    08:00 +12°C° 0 mm 1 mps 725 mmHg 67%
    09:00 +15°C° 0 mm 1 mps 725 mmHg 59%
    10:00 +19°C° 0 mm 1 mps 725 mmHg 51%
    11:00 +20°C° 0 mm 1 mps 725 mmHg 48%
    12:00 +21°C° 0 mm 1 mps 725 mmHg 46%
    13:00 +22°C° 0 mm 1 mps 725 mmHg 43%
    14:00 +21°C° 0 mm 1 mps 725 mmHg 49%
    15:00 +20°C° 0 mm 1 mps 725 mmHg 54%
    16:00 +20°C° 0 mm 1 mps 725 mmHg 59%
    17:00 +18°C° 0 mm 1 mps 725 mmHg 65%
    18:00 +15°C° 0 mm 1 mps 725 mmHg 71%
    19:00 +13°C° 0 mm 1 mps 725 mmHg 77%
    20:00 +13°C° 0 mm 1 mps 725 mmHg 77%
    21:00 +12°C° 0 mm 1 mps 725 mmHg 78%
    22:00 +12°C° 0 mm 1 mps 726 mmHg 79%
    23:00 +12°C° 0 mm 1 mps 726 mmHg 78%

    Tomorrow, 21 October, Saturday

    Time Temperature Precipitation Wind Pressure Humidity
    00:00 +12°C° 0 mm 1 mps 726 mmHg 78%
    01:00 +11°C° 0 mm 1 mps 726 mmHg 77%
    02:00 +11°C° 0 mm 1 mps 726 mmHg 77%
    03:00 +11°C° 0 mm 1 mps 725 mmHg 76%
    04:00 +11°C° 0 mm 1 mps 725 mmHg 75%
    05:00 +11°C° 0 mm 1 mps 726 mmHg 75%
    06:00 +11°C° 0 mm 1 mps 726 mmHg 74%
    07:00 +11°C° 0 mm 1 mps 726 mmHg 73%
    08:00 +14°C° 0 mm 1 mps 726 mmHg 66%
    09:00 +16°C° 0 mm 0 mps 726 mmHg 58%
    10:00 +18°C° 0 mm 0 mps 726 mmHg 51%
    11:00 +19°C° 0 mm 0 mps 726 mmHg 48%
    12:00 +20°C° 0 mm 0 mps 726 mmHg 46%
    13:00 +23°C° 0 mm 1 mps 726 mmHg 44%
    14:00 +22°C° 0 mm 1 mps 725 mmHg 49%
    15:00 +21°C° 0 mm 1 mps 725 mmHg 55%
    16:00 +19°C° 0 mm 1 mps 724 mmHg 61%
    17:00 +18°C° 0 mm 1 mps 724 mmHg 66%
    18:00 +15°C° 0 mm 1 mps 724 mmHg 71%
    19:00 +14°C° 0 mm 1 mps 725 mmHg 77%
    20:00 +13°C° 0 mm 1 mps 724 mmHg 78%
    21:00 +13°C° 0 mm 1 mps 724 mmHg 79%
    22:00 +13°C° 0 mm 1 mps 724 mmHg 80%
    23:00 +12°C° 0 mm 1 mps 724 mmHg 81%

    Day after tomorrow, 22 October, Sunday

    Time Temperature Precipitation Wind Pressure Humidity
    00:00 +12°C° 0 mm 1 mps 724 mmHg 81%
    01:00 +12°C° 0 mm 1 mps 724 mmHg 82%
    02:00 +12°C° 0 mm 1 mps 724 mmHg 82%
    03:00 +12°C° 0 mm 1 mps 724 mmHg 83%
    04:00 +12°C° 0 mm 1 mps 724 mmHg 83%
    05:00 +12°C° 0 mm 1 mps 724 mmHg 83%
    06:00 +12°C° 0 mm 1 mps 724 mmHg 84%
    07:00 +12°C° 0 mm 1 mps 724 mmHg 85%
    08:00 +13°C° 0.1 mm 1 mps 724 mmHg 80%
    09:00 +15°C° 0.1 mm 1 mps 724 mmHg 75%
    10:00 +16°C° 0.1 mm 1 mps 724 mmHg 70%
    11:00 +15°C° 0.6 mm 2 mps 724 mmHg 74%
    12:00 +14°C° 0.6 mm 2 mps 724 mmHg 78%
    13:00 +14°C° 0.6 mm 2 mps 723 mmHg 82%
    14:00 +13°C° 3.2 mm 2 mps 723 mmHg 86%
    15:00 +12°C° 3.2 mm 2 mps 723 mmHg 89%
    16:00 +10°C° 3.2 mm 2 mps 723 mmHg 93%
    17:00 +9°C° 2.2 mm 2 mps 723 mmHg 93%
    18:00 +9°C° 2.2 mm 2 mps 723 mmHg 93%
    19:00 +8°C° 2.2 mm 2 mps 724 mmHg 93%
    20:00 +8°C° 0.6 mm 2 mps 724 mmHg 92%
    21:00 +8°C° 0.6 mm 2 mps 724 mmHg 91%
    22:00 +8°C° 0.6 mm 2 mps 724 mmHg 90%
    23:00 +8°C° 0.1 mm 2 mps 724 mmHg 89%

    23 October, Monday

    Time Temperature Precipitation Wind Pressure Humidity
    00:00 +8°C° 0.1 mm 2 mps 724 mmHg 89%
    01:00 +8°C° 0.1 mm 2 mps 723 mmHg 88%
    02:00 +8°C° 0 mm 2 mps 723 mmHg 88%
    03:00 +7°C° 0 mm 2 mps 723 mmHg 87%
    04:00 +7°C° 0 mm 2 mps 723 mmHg 87%
    05:00 +7°C° 0 mm 2 mps 723 mmHg 86%
    06:00 +7°C° 0 mm 2 mps 723 mmHg 86%
    07:00 +7°C° 0 mm 3 mps 723 mmHg 85%
    08:00 +8°C° 0 mm 3 mps 723 mmHg 79%
    09:00 +8°C° 0 mm 4 mps 723 mmHg 73%
    10:00 +9°C° 0 mm 5 mps 723 mmHg 67%
    11:00 +9°C° 0 mm 5 mps 723 mmHg 63%
    12:00 +10°C° 0 mm 5 mps 723 mmHg 58%
    13:00 +10°C° 0 mm 5 mps 723 mmHg 54%
    14:00 +10°C° 0 mm 5 mps 723 mmHg 58%
    15:00 +11°C° 0 mm 4 mps 723 mmHg 61%
    16:00 +10°C° 0 mm 3 mps 723 mmHg 65%
    17:00 +9°C° 0 mm 3 mps 723 mmHg 69%
    18:00 +8°C° 0 mm 3 mps 724 mmHg 73%
    19:00 +7°C° 0 mm 2 mps 724 mmHg 78%
    20:00 +7°C° 0 mm 2 mps 724 mmHg 79%
    21:00 +7°C° 0 mm 2 mps 725 mmHg 80%
    22:00 +6°C° 0 mm 2 mps 725 mmHg 81%
    23:00 +6°C° 0 mm 2 mps 725 mmHg 82%

    24 October, Tuesday

    Time Temperature Precipitation Wind Pressure Humidity
    00:00 +6°C° 0 mm 2 mps 725 mmHg 83%
    01:00 +6°C° 0 mm 2 mps 725 mmHg 84%
    02:00 +5°C° 0 mm 3 mps 726 mmHg 84%
    03:00 +5°C° 0 mm 3 mps 726 mmHg 84%
    04:00 +5°C° 0 mm 3 mps 726 mmHg 84%
    05:00 +5°C° 0 mm 3 mps 726 mmHg 84%
    06:00 +5°C° 0 mm 3 mps 727 mmHg 85%
    07:00 +5°C° 0 mm 3 mps 727 mmHg 85%
    08:00 +8°C° 0 mm 3 mps 727 mmHg 77%
    09:00 +10°C° 0 mm 4 mps 728 mmHg 68%
    10:00 +12°C° 0 mm 5 mps 728 mmHg 60%
    11:00 +12°C° 0 mm 5 mps 728 mmHg 58%
    12:00 +13°C° 0 mm 5 mps 728 mmHg 56%
    13:00 +13°C° 0 mm 5 mps 728 mmHg 55%
    14:00 +13°C° 0 mm 4 mps 728 mmHg 58%
    15:00 +12°C° 0 mm 4 mps 728 mmHg 62%
    16:00 +11°C° 0 mm 3 mps 728 mmHg 66%
    17:00 +10°C° 0 mm 3 mps 729 mmHg 72%
    18:00 +9°C° 0 mm 2 mps 729 mmHg 78%
    19:00 +7°C° 0 mm 2 mps 730 mmHg 84%
    20:00 +7°C° 0 mm 2 mps 730 mmHg 86%
    21:00 +7°C° 0 mm 2 mps 730 mmHg 88%
    22:00 +7°C° 0 mm 2 mps 731 mmHg 89%
    23:00 +7°C° 0 mm 2 mps 731 mmHg 90%

    25 October, Wednesday

    Time Temperature Precipitation Wind Pressure Humidity
    00:00 +7°C° 0 mm 1 mps 731 mmHg 91%
    01:00 +7°C° 0 mm 1 mps 731 mmHg 92%
    02:00 +7°C° 0 mm 1 mps 731 mmHg 93%
    03:00 +7°C° 0 mm 1 mps 731 mmHg 93%
    04:00 +7°C° 0 mm 1 mps 731 mmHg 93%
    05:00 +7°C° 0 mm 1 mps 731 mmHg 93%
    06:00 +7°C° 0 mm 1 mps 731 mmHg 93%
    07:00 +7°C° 0 mm 1 mps 731 mmHg 93%
    08:00 +9°C° 0 mm 1 mps 731 mmHg 85%
    09:00 +12°C° 0 mm 1 mps 731 mmHg 77%
    10:00 +14°C° 0 mm 1 mps 732 mmHg 69%
    11:00 +15°C° 0 mm 1 mps 731 mmHg 67%
    12:00 +15°C° 0 mm 1 mps 731 mmHg 64%
    13:00 +16°C° 0 mm 1 mps 731 mmHg 62%
    14:00 +16°C° 0 mm 1 mps 731 mmHg 66%
    15:00 +15°C° 0 mm 1 mps 730 mmHg 70%
    16:00 +14°C° 0 mm 1 mps 730 mmHg 74%
    17:00 +13°C° 0 mm 1 mps 731 mmHg 79%
    18:00 +11°C° 0 mm 1 mps 731 mmHg 84%
    19:00 +10°C° 0 mm 1 mps 731 mmHg 89%
    20:00 +10°C° 0 mm 1 mps 731 mmHg 90%
    21:00 +9°C° 0 mm 1 mps 732 mmHg 90%
    22:00 +9°C° 0 mm 1 mps 732 mmHg 91%
    23:00 +9°C° 0 mm 1 mps 732 mmHg 91%
    Show more